Weather History for KMDS - October, 2012

Change the Weather History Date:

Wednesday, October 31, 2012

  Actual Average Record
Temperature  
Mean Temperature 44 °F -  
Max Temperature 57 °F 50 °F - (-1)
Min Temperature 32 °F 32 °F - (-1)
Degree Days  
Heating Degree Days 20    
Moisture  
Dew Point 35 °F    
Average Humidity 64    
Maximum Humidity 100    
Minimum Humidity 44    
Precipitation  
Precipitation 0.00 in - - ()
Sea Level Pressure  
Sea Level Pressure 29.98 in    
Wind  
Wind Speed 7 mph (WSW)    
Max Wind Speed 10 mph    
Max Gust Speed -    
Visibility 10 miles    
Events      
Averages and records for this station are not official NWS values.
T = Trace of Precipitation, MM = Missing Value Source: NWS Daily Summary

Daily Weather History Graph

Daily Weather History Graph

Search for Another Location

Airport or City:

Trip Planner

Search our weather history database for the weather conditions in past years. The results will help you decide how hot, cold, wet, or windy it might be!

Date:

Astronomy

Oct. 31, 2012 Rise Set
Actual Time 8:04 AM CDT 6:19 PM CDT
Civil Twilight 7:34 AM CDT 6:49 PM CDT
Nautical Twilight 7:00 AM CDT 7:23 PM CDT
Astronomical Twilight 6:26 AM CDT 7:56 PM CDT
Moon 7:27 PM CDT (10/31) 9:50 AM CDT (10/31)
Length of Visible Light 11h 14m
Length of Day
10h 14m
Full, 97% of the Moon is Illuminated
Oct 31
Full
Nov 6
Last Quarter
Nov 13
New
Nov 20
First Quarter
Nov 28
Full

Hourly Weather History & Observations

Time (CDT) Temp. Windchill Dew Point Humidity Pressure Visibility Wind Dir Wind Speed Gust Speed Precip Events Conditions
9:10 AM 32.0 °F 26.4 °F 32.0 °F 100% 30.04 in 10.0 mi South 5.8 mph - N/A   Clear
9:20 AM 32.0 °F 25.6 °F 32.0 °F 100% 30.04 in 10.0 mi South 6.9 mph - N/A   Clear
9:40 AM 35.6 °F 29.9 °F 32.0 °F 87% 30.03 in 10.0 mi South 6.9 mph - N/A   Clear
10:00 AM 35.6 °F 29.9 °F 33.8 °F 93% 30.03 in 10.0 mi South 6.9 mph - N/A   Clear
10:20 AM 37.4 °F 31.4 °F 35.6 °F 93% 30.03 in 10.0 mi South 8.1 mph - N/A   Clear
10:40 AM 39.2 °F 33.6 °F 33.8 °F 81% 30.02 in 10.0 mi South 8.1 mph - N/A   Clear
11:05 AM 42.8 °F 37.0 °F 32.0 °F 66% 30.02 in 10.0 mi SSW 10.4 mph - N/A   Clear
11:20 AM 44.6 °F 40.2 °F 32.0 °F 61% 30.02 in 10.0 mi SSW 8.1 mph - N/A   Clear
11:40 AM 46.4 °F 41.5 °F 32.0 °F 57% 30.02 in 10.0 mi SSW 10.4 mph - N/A   Clear
12:00 PM 48.2 °F - 32.0 °F 54% 30.02 in 10.0 mi SSW 9.2 mph - N/A   Clear
12:20 PM 50.0 °F - 32.0 °F 50% 30.01 in 10.0 mi SW 9.2 mph - N/A   Clear
12:40 PM 50.0 °F - 32.0 °F 50% 30.01 in 10.0 mi SW 8.1 mph - N/A   Clear
1:05 PM 53.6 °F - 32.0 °F 44% 30.00 in 10.0 mi WSW 8.1 mph - N/A   Clear
1:20 PM 53.6 °F - 32.0 °F 44% 29.99 in 10.0 mi SW 8.1 mph - N/A   Clear
2:00 PM 55.4 °F - 33.8 °F 44% 29.97 in 10.0 mi SW 8.1 mph - N/A   Clear
2:20 PM 55.4 °F - 33.8 °F 44% 29.97 in 10.0 mi SW 8.1 mph - N/A   Clear
2:40 PM 55.4 °F - 33.8 °F 44% 29.96 in 10.0 mi SW 9.2 mph - N/A   Clear
3:00 PM 57.2 °F - 35.6 °F 44% 29.96 in 10.0 mi SW 8.1 mph - N/A   Clear
3:20 PM 57.2 °F - 35.6 °F 44% 29.96 in 10.0 mi WSW 8.1 mph - N/A   Clear
3:40 PM 57.2 °F - 35.6 °F 44% 29.96 in 10.0 mi WSW 5.8 mph - N/A   Clear
4:00 PM 57.2 °F - 35.6 °F 44% 29.96 in 10.0 mi WSW 5.8 mph - N/A   Clear
4:20 PM 57.2 °F - 35.6 °F 44% 29.96 in 10.0 mi SW 8.1 mph - N/A   Clear
4:40 PM 57.2 °F - 35.6 °F 44% 29.96 in 10.0 mi WSW 8.1 mph - N/A   Clear
5:00 PM 57.2 °F - 37.4 °F 48% 29.96 in 10.0 mi West 5.8 mph - N/A   Clear
5:20 PM 57.2 °F - 35.6 °F 44% 29.96 in 10.0 mi WSW 6.9 mph - N/A   Clear
5:40 PM 53.6 °F - 35.6 °F 51% 29.96 in 10.0 mi WSW 4.6 mph - N/A   Clear
6:00 PM 53.6 °F - 35.6 °F 51% 29.96 in 10.0 mi WSW 5.8 mph - N/A   Clear
6:20 PM 51.8 °F - 35.6 °F 54% 29.96 in 10.0 mi WSW 4.6 mph - N/A   Clear
6:40 PM 50.0 °F - 35.6 °F 58% 29.96 in 10.0 mi West 4.6 mph - N/A   Clear
7:00 PM 48.2 °F - 37.4 °F 66% 29.97 in 10.0 mi Calm Calm - N/A   Clear
7:20 PM 48.2 °F - 37.4 °F 66% 29.97 in 10.0 mi WSW 3.5 mph - N/A   Clear
7:40 PM 48.2 °F - 37.4 °F 66% 29.97 in 10.0 mi WSW 4.6 mph - N/A   Clear
8:00 PM 44.6 °F 42.2 °F 37.4 °F 76% 29.96 in 10.0 mi WSW 4.6 mph - N/A   Clear
8:20 PM 44.6 °F - 37.4 °F 76% 29.96 in 9.0 mi Calm Calm - N/A   Clear
8:40 PM 46.4 °F 45.2 °F 37.4 °F 71% 29.96 in 10.0 mi West 3.5 mph - N/A   Clear
9:00 PM 44.6 °F - 37.4 °F 76% 29.96 in 10.0 mi Calm Calm - N/A   Clear
9:20 PM 46.4 °F - 37.4 °F 71% 29.95 in 10.0 mi Calm Calm - N/A   Partly Cloudy
9:40 PM 44.6 °F - 37.4 °F 76% 29.96 in 9.0 mi Calm Calm - N/A   Mostly Cloudy
10:00 PM 44.6 °F 43.1 °F 37.4 °F 76% 29.96 in 8.0 mi NW 3.5 mph - N/A   Overcast
10:20 PM 44.6 °F 42.2 °F 39.2 °F 81% 29.96 in 10.0 mi WNW 4.6 mph - N/A   Overcast
10:40 PM 44.6 °F 41.4 °F 39.2 °F 81% 29.97 in 10.0 mi WNW 5.8 mph - N/A   Overcast
11:00 PM 46.4 °F 43.5 °F 39.2 °F 76% 29.97 in 10.0 mi WNW 5.8 mph - N/A   Overcast
11:20 PM 44.6 °F 41.4 °F 39.2 °F 81% 29.97 in 10.0 mi WNW 5.8 mph - N/A   Scattered Clouds
11:40 PM 42.8 °F 38.6 °F 39.2 °F 87% 29.97 in 10.0 mi West 6.9 mph - N/A   Clear